Satellite-Ground Cal/Val Site Overpasses Predictions

Prediction of Satellite NPP Overpassing Cal/Val Site: Antarctic Dome C

Ground Cal/Val Site Location: Latitude: -75.10, Longitude: 123.35; Satellite-Ground Site NADIR distance within 100 km.

Table of predicted overpasses for the next 14.0 days since TLE Epoch: 10/4/2019
Interval Starting Time Ending Time Minimum Distance Time Minimum Distance (km)
1 10/05/2019 07:19:19 10/05/2019 07:19:39 10/05/2019 07:19:29 71.86
2 10/07/2019 15:01:34 10/07/2019 15:01:58 10/07/2019 15:01:46 56.06
3 10/08/2019 14:42:43 10/08/2019 14:43:08 10/08/2019 14:42:55 53.14
4 10/09/2019 07:44:25 10/09/2019 07:44:44 10/09/2019 07:44:34 73.61
5 10/10/2019 07:25:32 10/10/2019 07:25:59 10/10/2019 07:25:45 34.32
6 10/12/2019 15:07:57 10/12/2019 15:08:06 10/12/2019 15:08:02 94.00
7 10/13/2019 14:48:57 10/13/2019 14:49:25 10/13/2019 14:49:11 17.20
8 10/15/2019 07:31:45 10/15/2019 07:32:15 10/15/2019 07:32:00 2.62


NCC Satellite Cal/Val Overpasses Prediction Service
